Home > Weather > Greven > Past weeks

Flag for Germany Past Weather in Greven, North Rhine-Westphalia, Germany — Yesterday and Last 2 Weeks

Now
66 °F

Partly sunny.


Feels Like: 66 °F
Forecast: 52 / 73 °F
Wind: 7 mph from North

Location: Muenster / Osnabrueck

Current Time: May 26, 2016 at 8:28:59 PM

Latest Report: May 26, 2016 at 7:50 PM


Visibility: N/A

Pressure: 30.01 "Hg

Humidity: 52%

Dew Point: 48 °F

Location of GrevenLocation

Past Weather in Greven — Graph

°F

Greven Temperature Yesterday

Maximum temperature yesterday: 61 °F (at 4:50 PM)
Minimum temperature yesterday: 50 °F (at 12:20 AM)
Average temperature yesterday: 54 °F

High & Low Weather Summary for the Past Weeks

 TemperatureHumidityPressure
High77 °F (May 12, 4:50 PM)100% (May 19, 6:20 AM)30.09 "Hg (May 19, 6:20 AM)
Low36 °F (May 16, 3:50 AM)23% (May 13, 2:20 PM)29.53 "Hg (May 12, 2:50 PM)
Average56 °F70%29.89 "Hg
* Reported May 11 7:20 PM — May 26 7:20 PM, Greven, Weather by CustomWeather, © 2016

Note: Actual official high and low records may vary slightly from our data, if they occured in-between our weather recording intervals... More about our weather records

Advertising

Greven Weather History for the Previous 24 Hours

Scroll right to see more
 ConditionsComfort  
Time TempWeatherWind HumidityBarometerVisibility
7:20 PM
Thu, May 26
66 °FPartly sunny.7 mph52%30.01 "HgN/A
6:50 PM68 °FScattered clouds.3 mph46%30.01 "HgN/A
6:20 PM68 °FScattered clouds.3 mph43%30.01 "HgN/A
5:50 PM68 °FScattered clouds.3 mph46%30.01 "HgN/A
5:20 PM68 °FScattered clouds.6 mph46%30.01 "HgN/A
4:50 PM66 °FPartly sunny.5 mph49%30.01 "HgN/A
4:20 PM66 °FPartly sunny.5 mph52%30.01 "HgN/A
3:50 PM64 °FPartly sunny.7 mph56%30.04 "HgN/A
3:20 PM64 °FPartly sunny.7 mph52%30.04 "HgN/A
2:50 PM64 °FBroken clouds.6 mph52%30.04 "HgN/A
2:20 PM66 °FBroken clouds.3 mph49%30.04 "HgN/A
1:50 PM66 °FPassing clouds.3 mph49%30.04 "HgN/A
1:20 PM66 °FBroken clouds.6 mph46%30.04 "HgN/A
12:50 PM66 °FScattered clouds.3 mph49%30.04 "HgN/A
12:20 PM66 °FScattered clouds.3 mph52%30.04 "HgN/A
11:50 AM64 °FScattered clouds.6 mph52%30.04 "HgN/A
11:20 AM64 °FScattered clouds.5 mph52%30.04 "HgN/A
10:50 AM63 °FScattered clouds.2 mph59%30.04 "HgN/A
10:20 AM61 °FScattered clouds.2 mph59%30.04 "HgN/A
9:50 AM63 °FScattered clouds.2 mph59%30.04 "HgN/A
9:20 AM61 °FSunny.1 mph59%30.04 "Hg10 mi
8:50 AM59 °FSunny.1 mph68%30.04 "Hg10 mi
8:20 AM57 °FScattered clouds.2 mph77%30.04 "HgN/A
7:50 AM55 °FPartly sunny.2 mph88%30.01 "HgN/A
7:20 AM55 °FPartly sunny.2 mph88%30.01 "HgN/A
6:50 AM54 °FPartly sunny.2 mph94%30.01 "HgN/A
6:20 AM54 °FPartly sunny.2 mph94%30.01 "HgN/A
5:50 AM54 °FPassing clouds.1 mph94%30.01 "HgN/A
5:20 AM54 °FPassing clouds.2 mph88%30.01 "HgN/A
4:50 AM54 °FPassing clouds.2 mph88%30.01 "HgN/A
4:20 AM54 °FPassing clouds.1 mph88%30.01 "HgN/A
3:50 AM54 °FPassing clouds.2 mph88%30.01 "HgN/A
3:20 AM52 °FPassing clouds.1 mph94%30.01 "HgN/A
2:50 AM52 °FPartly cloudy.1 mph94%30.01 "HgN/A
2:20 AM54 °FPassing clouds.3 mph88%30.01 "HgN/A
1:50 AM54 °FPassing clouds.3 mph88%30.01 "HgN/A
1:20 AM55 °FPassing clouds.2 mph82%30.01 "HgN/A
12:50 AM55 °FPassing clouds.2 mph88%30.01 "HgN/A
12:20 AM55 °FPassing clouds.2 mph82%30.01 "HgN/A
11:50 PM
Wed, May 25
55 °FPassing clouds.2 mph82%30.01 "HgN/A
11:20 PM55 °FPassing clouds.1 mph82%30.01 "HgN/A
10:50 PM55 °FPassing clouds.1 mph82%30.01 "HgN/A
10:20 PM55 °FPartly sunny.No wind82%30.01 "HgN/A
9:50 PM55 °FPartly sunny.2 mph82%30.01 "HgN/A
9:20 PM55 °FPartly sunny.1 mph82%29.98 "HgN/A
8:50 PM57 °FPartly sunny.1 mph77%29.98 "HgN/A
8:20 PM59 °FBroken clouds.No wind72%29.98 "HgN/A
Weather by CustomWeather, © 2016

See weather overviewHow to use our weather pages